Simultaneous Nadir Overpasses (SNOs) Predictions

Prediction of SNOs between AQUA and GOES-15 Satellite Orbit:

Table of predicted SNOs for the next 14.0 days since TLE Epoch: 5/15/2015
Index Date Time (AQUA) AQUA Lat,Lon GOES-15 Lat,Lon Distance(km) Time Diff (sec)
1 05/17/2015 10:32:46 -0.21,-134.16 0.04,-135.38 139.02 80
2 05/17/2015 22:54:08 -0.89,-139.35 -0.03,-135.34 456.18 80
3 05/19/2015 10:20:30 -0.85,-131.19 0.04,-135.35 473.51 80
4 05/19/2015 22:41:52 -0.24,-136.38 -0.03,-135.30 121.70 80
5 05/21/2015 22:29:36 0.39,-133.40 -0.03,-135.27 212.78 80
6 05/22/2015 10:50:49 0.72,-138.55 0.03,-135.30 370.01 80
7 05/24/2015 10:38:31 0.10,-135.57 0.03,-135.26 35.62 80
8 05/26/2015 10:26:13 -0.54,-132.59 0.03,-135.21 298.68 80
9 05/26/2015 22:47:35 -0.56,-137.77 -0.02,-135.16 296.79 80
10 05/28/2015 22:35:15 0.02,-134.78 -0.02,-135.11 37.32 80




NCC Satellite Simultaneous Nadir Overpasses (SNOs) Prediction Service
